Address 0x06c3ce80f6a7b3c44600739ec6058b2241882df2

 
Txn Hash Method
Block
From
To
Value [Txn Fee]
0x0e9a1246d372e4e60d05ba0f6c3f321a0ae974053ec243f8973cd3bd8a94426dTransfer220579702021-12-02 17:51:5915 mins ago0x06c3ce80f6a7b3c44600739ec6058b2241882df2OUT0xe7b30a037f5598e4e73702ca66a59af5cc650dcd22.57963477 MATIC0.00105
0x2172763444731f1a80cd193df997cd1c26030ac2d47d0503760d41678bbc6bafTransfer220568562021-12-02 17:13:4154 mins ago0xe67040aba0c092fcf24683b20658848235cdd020 IN 0x06c3ce80f6a7b3c44600739ec6058b2241882df244.847280070873932 MATIC0.00105
0x8f3a068a72d78582b3a0c8d57ec948eb8d77e738177f08539fb57e6195564bacTransfer220567462021-12-02 17:09:5358 mins ago0x06c3ce80f6a7b3c44600739ec6058b2241882df2OUT0x4cbd2dcde9b04f9ed57639a9549213701846963b0.0009892 MATIC0.00105
0x8d61f8d97fbe2db92d1f4097212849f73cfe0fc05ed3bf11cec9f0db8557bd05Transfer220564312021-12-02 16:56:551 hr 11 mins ago0x06c3ce80f6a7b3c44600739ec6058b2241882df2OUT0x4cbd2dcde9b04f9ed57639a9549213701846963b0.0009892 MATIC0.00105
0x3acaeed011353583225995cb3bb95f5c9a622f003ffbdf26404876fb4b3e126cTransfer220563392021-12-02 16:53:471 hr 14 mins ago0x06c3ce80f6a7b3c44600739ec6058b2241882df2OUT0x4cbd2dcde9b04f9ed57639a9549213701846963b0.0009892 MATIC0.00105
0x0785048b485ea6dcb9492344254d653b128124c3068e9c7e6aaba5204f5f22aaTransfer220559332021-12-02 16:39:471 hr 28 mins ago0x06c3ce80f6a7b3c44600739ec6058b2241882df2OUT PolyDoge: PolyDoge Token0 MATIC0.0017398
0x251c1193acd7ea7c4b960e3c72ab17bd8513b771462b221e8015eba1d714f56aTransfer220559302021-12-02 16:39:411 hr 28 mins ago0x06c3ce80f6a7b3c44600739ec6058b2241882df2OUT PolyDoge: PolyDoge Token0 MATIC0.0017404
0xf4c628f66f6c7e01b82999cc65586678e0c62803da62692f9b9d466974f80ecbTransfer220558332021-12-02 16:36:231 hr 31 mins ago0x06c3ce80f6a7b3c44600739ec6058b2241882df2OUT PolyDoge: PolyDoge Token0 MATIC0.001741
0x27d984a43dcc58604adb267fb654bde75ad38f9016ab830c41722489d6ef8e5eTransfer220558302021-12-02 16:36:171 hr 31 mins ago0x06c3ce80f6a7b3c44600739ec6058b2241882df2OUT PolyDoge: PolyDoge Token0 MATIC0.0025948
0xd0e80a6e63213f8476f0898a0cb87b11fc799871b8a6df1ef10d6f463627e758Transfer220558272021-12-02 16:36:111 hr 31 mins ago0x06c3ce80f6a7b3c44600739ec6058b2241882df2OUT PolyDoge: PolyDoge Token0 MATIC0.002596
0xbfda212b786e418a3cb728d14c728351d2a47d7bc5ebdffe15900f73a96076caTransfer220557302021-12-02 16:32:491 hr 35 mins ago0x06c3ce80f6a7b3c44600739ec6058b2241882df2OUT PolyDoge: PolyDoge Token0 MATIC0.0025954
0xf8df2296f3a73a38160fb55e628f4000d131f7220e8fe75eb5957f6ac121fd51Transfer220557282021-12-02 16:32:451 hr 35 mins ago0x06c3ce80f6a7b3c44600739ec6058b2241882df2OUT PolyDoge: PolyDoge Token0 MATIC0.0025936
0x3cb3312e3657cb4d39a80b21f072ad443e5e658a2f4dfb13fc21b8c2313c1506Transfer220551092021-12-02 16:11:291 hr 56 mins ago0x06c3ce80f6a7b3c44600739ec6058b2241882df2OUT0x2af6a36a1e0932b5eefb2cb972f2b016e4f413a316.58042079 MATIC0.00105
0x0fdf05d364f18d587f657d1c2f10778e9a75c358bf790218415c8aacb7629897Transfer220546022021-12-02 15:54:032 hrs 13 mins ago0x06c3ce80f6a7b3c44600739ec6058b2241882df2OUT0x2d22f7308782874c847bb46baf54f9dd8b1b6c43107.03854521 MATIC0.00105
0x80a2a473f604a706379d56bd0647e3ee4e9858a132c2a49a6102343d152f8e0fTransfer220542212021-12-02 15:40:562 hrs 27 mins ago0x8860aaa2ea7e2c6c29e285b5987906a16f54bdff IN 0x06c3ce80f6a7b3c44600739ec6058b2241882df2272.99895 MATIC0.00105
0x1db5732963f2a64c37477d9bb1cf7c36b2d92eb2f85f8cf0265cc8a0ff722cd7Transfer220539972021-12-02 15:33:122 hrs 34 mins ago0x06c3ce80f6a7b3c44600739ec6058b2241882df2OUT0x2d22f7308782874c847bb46baf54f9dd8b1b6c432.494575 MATIC0.00105
0x35e691eceafec4471c503d1d977982bedb01fb6a5b4545c10e59cb1aec9c6d20Transfer220521822021-12-02 14:30:493 hrs 37 mins ago0x06c3ce80f6a7b3c44600739ec6058b2241882df2OUT0x7924a80add3ef01f1b9cb52f2d6856086462c2492.58761654 MATIC0.00105
0xa0e7b2d03a790dfbe3dec79ac2831cb59bcbd3db19caa07b2000d772825ce8a0Transfer220520832021-12-02 14:27:233 hrs 40 mins ago0x06c3ce80f6a7b3c44600739ec6058b2241882df2OUT0x7924a80add3ef01f1b9cb52f2d6856086462c2491 MATIC0.00105
0xcb2223202efd06c47bf6c06dafa86677ea11daecdc410f8674fac3236a24b71fTransfer220511122021-12-02 13:53:184 hrs 14 mins ago0x06c3ce80f6a7b3c44600739ec6058b2241882df2OUT0x1f171a8bd319b8fcb54191a557be8cf4eaaf71613.04359502 MATIC0.00105
0xfe78aa0c53a7862530c632e92298ff11785a711033d2759bff05ed71a9b2b403Transfer220509152021-12-02 13:46:274 hrs 21 mins ago0x06c3ce80f6a7b3c44600739ec6058b2241882df2OUT0x1f171a8bd319b8fcb54191a557be8cf4eaaf71610.1 MATIC0.00105
0x35fd638fb433df1386425ad4d70c16b37122f2beb33240e1af96529c7181a4e8Transfer220502402021-12-02 13:23:174 hrs 44 mins ago0x06c3ce80f6a7b3c44600739ec6058b2241882df2OUT0x4cbd2dcde9b04f9ed57639a9549213701846963b0.0009898 MATIC0.00105
0x69beefac61d2254bb99086f7eb0f2be6144bdd6f6bb6bcc64e7e14c71cfa86e7Transfer220486342021-12-02 12:27:375 hrs 40 mins ago0xf1c7995e0da2d87d06155637c6aa915a9415f4d4 IN 0x06c3ce80f6a7b3c44600739ec6058b2241882df2169.99895 MATIC0.00105
0xbbccd0d3a358839fdc8201dec9785f67c6799e1b9a22c840e77255600a452e6cTransfer220484862021-12-02 12:22:335 hrs 45 mins ago0x06c3ce80f6a7b3c44600739ec6058b2241882df2OUT0x146e94f4db4cb97ff50ce7c2711f92741acf5241199 MATIC0.00105
0xb22686f6c693fcacbb936c6015828d170d6bcd24426131ac3c120513039e5479Transfer220477052021-12-02 11:53:356 hrs 14 mins ago0x3c7d32d15b24571d8641e359fe0f768b8ab3b5b3 IN 0x06c3ce80f6a7b3c44600739ec6058b2241882df21,477.895 MATIC0.00105
0xdb591d9cc117bceb5b7aa471913a1d7eb695412925e23d20bf3a5e3bcfc10f78Transfer220466132021-12-02 11:05:117 hrs 2 mins ago0x06c3ce80f6a7b3c44600739ec6058b2241882df2OUT0xae0e08e578423510b1af0ec8cb610396a3bc68ca664.17574468 MATIC0.00105
[ Download CSV Export 
Parent Txn Hash Block From To Value
Loading

Contract Name:
0 MATIC

Compiler Version
0

Optimization Enabled:
0 MATIC

Other Settings:
-NA-
Block Transaction Gas Used Reward
Age Block Fee Address BC Fee Address Voting Power Jailed Incoming
Block Uncle Number Difficulty Gas Used Reward
Loading
Loading
Make sure to use the "Vote Down" button for any spammy posts, and the "Vote Up" for interesting conversations.